Location: Aranbee
(34.0885°N, 118.2342°W)
Time: 22:13:21
(UTC+00:00)

Explorer 7 - Pass Details

Date: 06 August 2021
Orbit: 484 x 676 km, 50.3° (Epoch: 15 September)

Event Time Altitude Azimuth Distance (km) Brightness Sun altitude
Exits shadow 11:58:00 - 298° (WNW) 1,883 9.2 -13.9°
Reaches altitude 10° 11:58:58 10° 310° (NW) 1,670 9.1 -13.7°
Maximum altitude 12:00:47 13° 339° (NNW) 1,499 9.2 -13.4°
Drops below altitude 10° 12:02:38 10° 8° (N) 1,693 9.9 -13.1°
Sets 12:05:54 0° 37° (NE) 2,610 11.6 -12.5°
